SP9INZ-13 Weather Reports


time (UTC)temp
C
wind
direction
speed
KPH
gust
KPH
rain 1hr
cm
rain 24hr
cm
rain mn
cm
humidity
%
barometer
mb
20260905194837 21 0.0 0.0 0.00 0.00 0.00 51 1022.9
20260905193239 20 0.0 0.0 0.00 0.00 0.00 50 1023.1
20260905191641 20 0.0 0.0 0.00 0.00 0.00 51 1022.8
20260905190043 20 0.0 0.0 0.00 0.00 0.00 53 1022.5
20260905184445 20 0.0 0.0 0.00 0.00 0.00 53 1022.6
20260905182847 21 0.0 0.0 0.00 0.00 0.00 52 1022.2
20260905181249 21 0.0 0.0 0.00 0.00 0.00 51 1022.1
20260905175651 21 0.0 0.0 0.00 0.00 0.00 51 1021.9
20260905174053 22 0.0 0.0 0.00 0.00 0.00 50 1021.6
20260905172455 21 0.0 0.0 0.00 0.00 0.00 51 1021.9
20260905170857 21 0.0 0.0 0.00 0.00 0.00 52 1021.8
20260905165259 21 0.0 0.0 0.00 0.00 0.00 52 1021.8
20260905163703 21 0.0 0.0 0.00 0.00 0.00 51 1021.5
20260905162103 21 0.0 0.0 0.00 0.00 0.00 50 1021.5
20260905160505 22 0.0 0.0 0.00 0.00 0.00 47 1021.9
20260905154908 22 0.0 0.0 0.00 0.00 0.00 44 1021.9
20260905153312 23 0.0 0.0 0.00 0.00 0.00 42 1021.7
20260905151712 23 0.0 0.0 0.00 0.00 0.00 44 1021.2
20260905150115 22 0.0 0.0 0.00 0.00 0.00 50 1020.9
20260905142802 23 0.0 0.0 0.00 0.00 0.00 47 1020.3
20260905141204 23 0.0 0.0 0.00 0.00 0.00 50 1020.4
20260905135606 22 0.0 0.0 0.00 0.00 0.00 48 1021.0
20260905134009 23 0.0 0.0 0.00 0.00 0.00 47 1020.9
20260905132410 22 0.0 0.0 0.00 0.00 0.00 50 1020.7
20260905130812 22 0.0 0.0 0.00 0.00 0.00 51 1021.0
20260905125214 21 0.0 0.0 0.00 0.00 0.00 52 1020.9
20260905123616 23 0.0 0.0 0.00 0.00 0.00 49 1020.7
20260905122019 22 0.0 0.0 0.00 0.00 0.00 50 1021.2
20260905120420 23 0.0 0.0 0.00 0.00 0.00 49 1020.7
20260905114822 23 0.0 0.0 0.00 0.00 0.00 50 1020.3
20260905113224 21 0.0 0.0 0.00 0.00 0.00 57 1019.9
20260905111626 22 0.0 0.0 0.00 0.00 0.00 55 1019.9
20260905110028 21 0.0 0.0 0.00 0.00 0.00 58 1020.0
20260905104430 20 0.0 0.0 0.00 0.00 0.00 61 1019.3
20260905102832 20 0.0 0.0 0.00 0.00 0.00 63 1018.9
20260905101235 21 0.0 0.0 0.00 0.00 0.00 58 1019.4
20260905095636 20 0.0 0.0 0.00 0.00 0.00 62 1018.9
20260905094038 20 0.0 0.0 0.00 0.00 0.00 64 1018.7
20260905092441 19 0.0 0.0 0.00 0.00 0.00 65 1018.9
20260905090842 18 0.0 0.0 0.00 0.00 0.00 69 1018.4
20260905085244 19 0.0 0.0 0.00 0.00 0.00 69 1017.9
20260905083827 19 0.0 0.0 0.00 0.00 0.00 71 1017.4
20260905083646 19 0.0 0.0 0.00 0.00 0.00 71 1017.4
20260905082048 18 0.0 0.0 0.00 0.00 0.00 72 1017.7
20260905080450 18 0.0 0.0 0.00 0.00 0.00 76 1018.2
20260905074852 18 0.0 0.0 0.00 0.00 0.00 74 1017.7
20260905073254 18 0.0 0.0 0.00 0.00 0.00 74 1017.4
20260905071656 17 0.0 0.0 0.00 0.00 0.00 76 1017.7
20260905064501 17 0.0 0.0 0.00 0.00 0.00 76 1017.8
20260905062903 17 0.0 0.0 0.00 0.00 0.00 75 1017.2
20260905061306 18 0.0 0.0 0.00 0.00 0.00 73 1016.8
20260905061304 18 0.0 0.0 0.00 0.00 0.00 73 1016.8
20260905055706 17 0.0 0.0 0.00 0.00 0.00 77 1017.0
20260905054109 17 0.0 0.0 0.00 0.00 0.00 77 1016.6
20260905052512 17 0.0 0.0 0.00 0.00 0.00 79 1016.5
20260905052510 17 0.0 0.0 0.00 0.00 0.00 79 1016.5
20260905050913 17 0.0 0.0 0.00 0.00 0.00 78 1016.4
20260905045317 18 0.0 0.0 0.00 0.00 0.00 75 1015.7
20260905045315 18 0.0 0.0 0.00 0.00 0.00 75 1015.7
20260905043716 18 0.0 0.0 0.00 0.00 0.00 75 1015.1
20260905042118 17 0.0 0.0 0.00 0.00 0.00 78 1015.9
20260905040520 18 0.0 0.0 0.00 0.00 0.00 77 1015.3
20260905034922 18 0.0 0.0 0.00 0.00 0.00 78 1014.6
20260905033324 18 0.0 0.0 0.00 0.00 0.00 80 1014.5
20260905031726 18 0.0 0.0 0.00 0.00 0.00 78 1014.1
20260905030128 18 0.0 0.0 0.00 0.00 0.00 78 1013.8
20260905024530 18 0.0 0.0 0.00 0.00 0.00 79 1014.0
20260905022935 18 0.0 0.0 0.00 0.00 0.00 80 1014.4
20260905022931 18 0.0 0.0 0.00 0.00 0.00 80 1014.4
20260905021337 18 0.0 0.0 0.00 0.00 0.00 80 1014.2
20260905021334 18 0.0 0.0 0.00 0.00 0.00 80 1014.2
20260905015738 17 0.0 0.0 0.00 0.00 0.00 80 1014.2
20260905014137 18 0.0 0.0 0.00 0.00 0.00 79 1013.4
20260905012540 19 0.0 0.0 0.00 0.00 0.00 77 1013.3
20260905010942 18 0.0 0.0 0.00 0.00 0.00 78 1013.8
20260905005343 19 0.0 0.0 0.00 0.00 0.00 71 1013.2
20260905003745 19 0.0 0.0 0.00 0.00 0.00 69 1013.6
20260905002148 20 0.0 0.0 0.00 0.00 0.00 66 1013.4
20260905000550 20 0.0 0.0 0.00 0.00 0.00 64 1013.4
20260904234954 20 0.0 0.0 0.00 0.00 0.00 65 1013.7
20260904234952 20 0.0 0.0 0.00 0.00 0.00 65 1013.7
20260904233436 21 0.0 0.0 0.00 0.00 0.00 63 1012.6
20260904233353 21 0.0 0.0 0.00 0.00 0.00 63 1012.6
20260904231756 21 0.0 0.0 0.00 0.00 0.00 63 1012.7
20260904230159 22 0.0 0.0 0.00 0.00 0.00 61 1012.6
20260904224601 22 0.0 0.0 0.00 0.00 0.00 61 1012.4
20260904223002 22 0.0 0.0 0.00 0.00 0.00 61 1011.7
20260904221405 24 0.0 0.0 0.00 0.00 0.00 62 1010.2
20260904215806 25 0.0 0.0 0.00 0.00 0.00 61 1010.2
20260904214208 25 0.0 0.0 0.00 0.00 0.00 57 1010.0
20260904212611 25 0.0 0.0 0.00 0.00 0.00 57 1009.5
20260904211013 25 0.0 0.0 0.00 0.00 0.00 58 1009.5
20260904205414 25 0.0 0.0 0.00 0.00 0.00 58 1009.6
20260904203819 24 0.0 0.0 0.00 0.00 0.00 60 1009.4
20260904203817 24 0.0 0.0 0.00 0.00 0.00 60 1009.4
20260904202218 24 0.0 0.0 0.00 0.00 0.00 59 1009.5
20260904200620 25 0.0 0.0 0.00 0.00 0.00 59 1009.5